Simultaneous Nadir Overpasses (SNOs) Predictions

Prediction of SNOs between AQUA and METOP-B Satellite Orbit:

Table of predicted SNOs for the next 14.0 days since TLE Epoch: 2/28/2014
Index Date (AQUA) Time (AQUA) Lat,Lon (AQUA) SZA (AQUA ) Date (METOP-B) Time (METOP-B) Lat,Lon (METOP-B) SZA (METOP-B ) Distance(km) Time Diff (sec)
1 03/03/2014 05:07:12 -73.67, -82.17 99.39 03/03/2014 05:06:15 -73.70, -82.20 99.35 3.48 57
2 03/03/2014 05:56:41 73.75, 85.30 80.68 03/03/2014 05:56:54 73.77, 85.29 80.70 2.34 13
3 03/03/2014 06:46:17 -74.30,-108.30 98.74 03/03/2014 06:47:25 -74.28,-106.14 98.86 65.14 68
4 03/06/2014 00:41:20 -73.73, -15.82 100.43 03/06/2014 00:40:38 -73.71, -15.80 100.44 2.60 42
5 03/06/2014 01:30:48 73.76, 151.76 79.60 03/06/2014 01:31:17 73.76, 151.67 79.60 2.70 29
6 03/08/2014 20:15:26 -73.72, 50.68 101.54 03/08/2014 20:15:01 -73.75, 50.70 101.50 2.97 25
7 03/08/2014 21:04:55 73.81,-141.87 78.55 03/08/2014 21:05:40 73.80,-141.85 78.53 1.12 45
8 03/11/2014 15:00:00 73.47, -49.93 77.10 03/11/2014 14:58:49 73.44, -50.93 77.13 31.88 71
9 03/11/2014 15:49:31 -73.75, 117.10 102.61 03/11/2014 15:49:25 -73.73, 117.06 102.63 3.12 6
10 03/11/2014 16:39:00 73.84, -75.46 77.48 03/11/2014 16:40:03 73.82, -75.39 77.44 3.45 63
11 03/14/2014 10:34:06 73.70, 16.06 76.24 03/14/2014 10:33:06 73.70, 16.08 76.25 0.49 60
12 03/14/2014 11:23:33 -73.78,-176.46 103.70 03/14/2014 11:23:47 -73.75,-176.49 103.73 3.24 14




NCC Satellite Simultaneous Nadir Overpasses (SNOs) Prediction Service
